Regional Weather Roundup
Issued by NWS

Home | Current Version | Previous Version | Graphics & Text | Print | Product List | Glossary On
Versions: 1 2 3 4 5 6 7 8 9 10 11 12 13 14 15 16 17 18 19 20 21 22 23 24 25 26 27 28 29 30 31 32 33 34 35 36 37 38 39 40 41 42 43 44 45 46 47 48 49 50
000
ASUS43 KOAX 022210
RWRNE

WEATHER ROUNDUP FOR NEBRASKA
NATIONAL WEATHER SERVICE OMAHA NE
500 PM CDT TUE JUN 02 2015

NOTES: SATELLITE DATA IS BEING USED TO AUGMENT CLOUD COVER ABOVE
       12000 FEET.
       "FAIR" INDICATES FEW OR NO CLOUDS BELOW 12,000 FEET WITH NO
       SIGNIFICANT WEATHER AND/OR OBSTRUCTIONS TO VISIBILITY.

  * THESE STATIONS DO NOT REPORT WEATHER SUCH AS RAIN...SNOW OR FOG.

NEZ001>004-019>022-054>056-022300-
NEBRASKA PANHANDLE

CITY           SKY/WX    TMP DP  RH WIND       PRES   REMARKS
SCOTTSBLUFF    PTSUNNY   87  51  28 VRB3      29.79F
ALLIANCE       MOSUNNY   82  61  48 SE8       29.80F
CHADRON        MOSUNNY   77  61  57 E10       29.76F
KIMBALL          N/A    N/A N/A N/A MISG        N/A
SIDNEY         MOSUNNY   83  59  44 SE3       29.85F
$$

NEZ057>060-069>072-079>082-022300-
SOUTHWEST NEBRASKA

CITY           SKY/WX    TMP DP  RH WIND       PRES   REMARKS
NORTH PLATTE   PTSUNNY   83  67  58 SE9       29.80F
IMPERIAL       SUNNY     84  65  52 SE10      29.80F
LEXINGTON      SUNNY     80  68  65 S13       29.83F
MCCOOK         MOSUNNY   86  64  47 S15       29.79F
OGALLALA       SUNNY     85  64  48 SE10G18   29.81F
$$

NEZ005>010-023>029-035>040-094-022300-
NORTH CENTRAL NEBRASKA

CITY           SKY/WX    TMP DP  RH WIND       PRES   REMARKS
VALENTINE      MOSUNNY   88  58  36 S10       29.77
AINSWORTH      MOSUNNY   85  63  47 S17       29.80F
BROKEN BOW     PTSUNNY   75  65  70 SE18      29.84F
O`NEILL        MOSUNNY   78  64  62 S16       29.83S
ORD            CLOUDY    72  61  68 S14       29.84F
THEDFORD       MOSUNNY   85  65  51 S10G20    29.81F
$$

NEZ041-046>049-061>064-073>077-083>087-022300-
SOUTH CENTRAL NEBRASKA

CITY           SKY/WX    TMP DP  RH WIND       PRES   REMARKS
GRAND ISLAND   MOSUNNY   82  63  52 S14G25    29.85F
AURORA         MOSUNNY   83  62  48 S18G24    29.84F
HASTINGS       MOSUNNY   82  65  56 S15       29.84F
HEBRON         SUNNY     84  62  48 S15G23    29.85F
HOLDREGE       SUNNY     82  64  53 S16G24    29.83F
KEARNEY *      MOSUNNY   82  64  54 S15       29.84F
YORK           MOSUNNY   79  66  65 SE18      29.86F
$$

NEZ011>018-030>034-042>045-022300-
NORTHEAST NEBRASKA

CITY           SKY/WX    TMP DP  RH WIND       PRES   REMARKS
NORFOLK        SUNNY     78  63  59 S18G29    29.86F
ALBION         MOSUNNY   75  62  62 S17G24    29.86F
BLAIR          CLOUDY    74  58  58 SE17G25   29.92F
COLUMBUS *     MOSUNNY   77  61  57 S15G24    29.88F
FREMONT        MOSUNNY   75  60  60 SE17      29.91F
TEKAMAH        PTSUNNY   81  61  50 SE21      29.89F
WAYNE          MOSUNNY   78  64  62 S21G26    29.86F
$$

NEZ050>053-065>068-078-088>093-022300-
SOUTHEAST NEBRASKA

CITY           SKY/WX    TMP DP  RH WIND       PRES   REMARKS
LINCOLN        PTSUNNY   78  64  61 SE15      29.90F
OMAHA EPPLEY   CLOUDY    74  60  61 SE22G29   29.92F
BEATRICE       MOSUNNY   77  64  63 SE16      29.89F
FALLS CITY     CLOUDY    72  60  66 SE16      29.94F
NEBRASKA CITY  CLOUDY    71  56  58 SE15G22   29.93F
PLATTSMOUTH    CLOUDY    73  62  68 SE16      29.92F
$$

NEZ044-045-051>053-067-022300-
OMAHA AREA

CITY           SKY/WX    TMP DP  RH WIND       PRES   REMARKS
OMAHA EPPLEY   CLOUDY    74  60  61 SE22G29   29.92F
BLAIR          CLOUDY    74  58  58 SE17G25   29.92F
FREMONT        MOSUNNY   75  60  60 SE17      29.91F
MILLARD        PTSUNNY   73  62  68 SE17      29.92S
OFFUTT AFB     PTSUNNY   70  63  79 E17       29.92F
PLATTSMOUTH    CLOUDY    73  62  68 SE16      29.92F
WAHOO          MOCLDY    74  61  63 SE20G26   29.91F
$$



USA.gov is the U.S. government's official web portal to all federal, state and local government web resources and services.